FW3305 Weather Reports


time (UTC)temp
C
wind
direction
speed
KPH
gust
KPH
rain 1hr
cm
rain 24hr
cm
rain mn
cm
humidity
%
barometer
mb
20260508013356 17 240 0.0 4.8 0.00 0.00 0.00 52 1012.0
20260508013120 16 240 0.0 4.8 0.00 0.00 0.00 52 1012.0
20260508012842 17 240 1.6 4.8 0.00 0.00 0.00 52 1012.0
20260508012347 17 223 1.6 4.8 0.00 0.00 0.00 52 1012.0
20260508011853 17 223 1.6 4.8 0.00 0.00 0.00 51 1011.9
20260508011616 17 215 0.0 8.0 0.00 0.00 0.00 51 1011.9
20260508011419 17 261 1.6 8.0 0.00 0.00 0.00 51 1012.0
20260508010904 17 163 3.2 11.3 0.00 0.00 0.00 51 1011.9
20260508010409 17 227 3.2 11.3 0.00 0.00 0.00 51 1011.9
20260508010146 17 233 0.0 11.3 0.00 0.00 0.00 51 1011.8
20260508005856 17 236 3.2 12.9 0.00 0.00 0.00 51 1011.8
20260508005341 17 266 3.2 12.9 0.00 0.00 0.00 50 1011.8
20260508004846 18 236 3.2 12.9 0.00 0.00 0.00 50 1011.7
20260508004610 17 234 1.6 12.9 0.00 0.00 0.00 49 1011.7
20260508004351 18 243 4.8 12.9 0.00 0.00 0.00 49 1011.7
20260508003857 18 238 3.2 11.3 0.00 0.00 0.00 49 1011.7
20260508003344 18 241 1.6 8.0 0.00 0.00 0.00 49 1011.7
20260508003109 18 236 3.2 8.0 0.00 0.00 0.00 48 1011.6
20260508002850 18 107 3.2 8.0 0.00 0.00 0.00 48 1011.7
20260508002356 18 219 1.6 12.9 0.00 0.00 0.00 48 1011.7
20260508001841 18 238 3.2 12.9 0.00 0.00 0.00 47 1011.7
20260508001605 18 240 3.2 12.9 0.00 0.00 0.00 47 1011.6
20260508001346 18 266 1.6 11.3 0.00 0.00 0.00 47 1011.7
20260508000914 18 245 3.2 11.3 0.00 0.00 0.00 47 1011.6
20260508000358 18 240 3.2 11.3 0.00 0.00 0.00 47 1011.6
20260508000134 18 281 1.6 11.3 0.00 0.00 0.00 47 1011.5
20260507235845 18 257 1.6 12.9 0.00 0.00 0.00 47 1011.7
20260507235349 18 236 3.2 12.9 0.00 0.00 0.00 47 1011.6
20260507234854 18 246 3.2 8.0 0.00 0.00 0.00 47 1011.6
20260507234501 18 210 0.0 12.9 0.00 0.00 0.00 47 1011.7
20260507234400 18 207 1.6 12.9 0.00 0.00 0.00 47 1011.7
20260507233846 18 232 4.8 12.9 0.00 0.00 0.00 46 1011.7
20260507233352 18 245 3.2 11.3 0.00 0.00 0.00 47 1011.6
20260507233120 18 242 3.2 11.3 0.00 0.00 0.00 47 1011.6
20260507232857 18 246 3.2 14.5 0.00 0.00 0.00 46 1011.7
20260507232344 18 240 6.4 17.7 0.00 0.00 0.00 46 1011.7
20260507231850 18 238 8.0 17.7 0.00 0.00 0.00 46 1011.8
20260507231614 18 230 1.6 14.5 0.00 0.00 0.00 46 1011.8
20260507231356 18 244 3.2 14.5 0.00 0.00 0.00 47 1011.9
20260507230903 18 245 8.0 16.1 0.00 0.00 0.00 46 1011.9
20260507230347 19 238 4.8 11.3 0.00 0.00 0.00 46 1012.0
20260507230144 18 242 4.8 11.3 0.00 0.00 0.00 45 1012.0
20260507225855 19 193 3.2 14.5 0.00 0.00 0.00 46 1012.0
20260507225402 19 251 4.8 14.5 0.00 0.00 0.00 44 1012.1
20260507224846 20 244 3.2 16.1 0.00 0.00 0.00 44 1012.0
20260507224610 19 251 1.6 16.1 0.00 0.00 0.00 45 1012.1
20260507224351 20 229 6.4 16.1 0.00 0.00 0.00 44 1011.9
20260507223859 20 236 3.2 12.9 0.00 0.00 0.00 45 1012.0
20260507223405 19 249 4.8 14.5 0.00 0.00 0.00 45 1012.0
20260507223109 19 236 1.6 14.5 0.00 0.00 0.00 47 1012.1
20260507222848 19 250 6.4 14.5 0.00 0.00 0.00 45 1012.1
20260507222354 19 248 3.2 16.1 0.00 0.00 0.00 45 1012.2
20260507221900 20 236 6.4 16.1 0.00 0.00 0.00 44 1012.2
20260507221605 19 245 1.6 11.3 0.00 0.00 0.00 46 1012.2
20260507221345 20 238 3.2 11.3 0.00 0.00 0.00 46 1012.2
20260507220913 20 248 1.6 19.3 0.00 0.00 0.00 45 1012.2
20260507220419 19 239 4.8 19.3 0.00 0.00 0.00 46 1012.2
20260507220133 19 239 6.4 19.3 0.00 0.00 0.00 45 1012.2
20260507215845 20 240 6.4 20.9 0.00 0.00 0.00 44 1012.1
20260507215351 20 244 4.8 11.3 0.00 0.00 0.00 45 1012.2
20260507214918 20 237 4.8 16.1 0.00 0.00 0.00 45 1012.2
20260507214621 20 238 3.2 20.9 0.00 0.00 0.00 44 1012.2
20260507214343 20 247 6.4 20.9 0.00 0.00 0.00 44 1012.1
20260507213849 20 251 4.8 20.9 0.00 0.00 0.00 43 1012.2
20260507213355 20 232 4.8 17.7 0.00 0.00 0.00 44 1012.1
20260507213118 20 248 4.8 17.7 0.00 0.00 0.00 45 1012.3
20260507212840 20 244 4.8 17.7 0.00 0.00 0.00 44 1012.2
20260507212345 20 219 4.8 14.5 0.00 0.00 0.00 44 1012.2
20260507211912 20 240 1.6 11.3 0.00 0.00 0.00 46 1012.2
20260507211616 20 203 4.8 14.5 0.00 0.00 0.00 44 1012.2
20260507211356 20 248 4.8 14.5 0.00 0.00 0.00 45 1012.3
20260507210843 20 243 4.8 16.1 0.00 0.00 0.00 43 1012.4
20260507210350 20 240 6.4 16.1 0.00 0.00 0.00 43 1012.5
20260507210145 20 243 6.4 12.9 0.00 0.00 0.00 42 1012.4
20260507205857 20 249 3.2 12.9 0.00 0.00 0.00 44 1012.4
20260507205342 20 231 3.2 12.9 0.00 0.00 0.00 44 1012.5
20260507204910 20 237 3.2 16.1 0.00 0.00 0.00 43 1012.5
20260507204623 20 248 4.8 17.7 0.00 0.00 0.00 42 1012.6
20260507204353 20 250 4.8 17.7 0.00 0.00 0.00 42 1012.6
20260507203858 20 241 4.8 11.3 0.00 0.00 0.00 43 1012.7
20260507203403 20 249 1.6 17.7 0.00 0.00 0.00 44 1012.7
20260507203110 19 256 3.2 17.7 0.00 0.00 0.00 42 1012.7
20260507202847 20 240 8.0 16.1 0.00 0.00 0.00 42 1012.8
20260507202352 20 199 4.8 14.5 0.00 0.00 0.00 44 1012.8
20260507201858 19 254 4.8 16.1 0.00 0.00 0.00 43 1013.0
20260507201622 19 237 1.6 16.1 0.00 0.00 0.00 44 1012.9
20260507201343 19 256 6.4 16.1 0.00 0.00 0.00 43 1013.1
20260507200849 19 272 3.2 11.3 0.00 0.00 0.00 46 1013.1
20260507200356 19 251 1.6 11.3 0.00 0.00 0.00 43 1013.2
20260507200152 19 251 3.2 16.1 0.00 0.00 0.00 42 1013.2
20260507195844 19 233 6.4 16.1 0.00 0.00 0.00 42 1013.3
20260507195349 19 250 4.8 12.9 0.00 0.00 0.00 42 1013.3
20260507194916 20 238 4.8 12.9 0.00 0.00 0.00 43 1013.4
20260507194502 19 248 6.4 16.1 0.00 0.00 0.00 43 1013.4
20260507194400 19 236 6.4 16.1 0.00 0.00 0.00 44 1013.4
20260507193844 19 240 4.8 16.1 0.00 0.00 0.00 42 1013.4
20260507193350 19 225 4.8 14.5 0.00 0.00 0.00 43 1013.4
20260507193133 19 253 3.2 14.5 0.00 0.00 0.00 43 1013.6
20260507192856 19 244 3.2 14.5 0.00 0.00 0.00 44 1013.5
20260507192341 19 257 1.6 16.1 0.00 0.00 0.00 44 1013.5
20260507191846 19 229 4.8 16.1 0.00 0.00 0.00 42 1013.6
20260507191611 18 243 4.8 16.1 0.00 0.00 0.00 44 1013.6
20260507191352 19 252 6.4 16.1 0.00 0.00 0.00 44 1013.6
20260507190858 19 246 6.4 14.5 0.00 0.00 0.00 45 1013.8
20260507190343 18 257 4.8 14.5 0.00 0.00 0.00 45 1013.7
20260507190140 18 233 3.2 14.5 0.00 0.00 0.00 46 1013.8
20260507185851 18 244 3.2 12.9 0.00 0.00 0.00 47 1013.8
20260507185356 18 255 1.6 12.9 0.00 0.00 0.00 46 1013.9
20260507184842 18 244 4.8 14.5 0.00 0.00 0.00 45 1014.0
20260507184608 18 235 3.2 14.5 0.00 0.00 0.00 45 1014.0
20260507184347 18 240 4.8 14.5 0.00 0.00 0.00 46 1014.0
20260507183853 18 244 3.2 12.9 0.00 0.00 0.00 45 1014.1
20260507183342 18 237 4.8 12.9 0.00 0.00 0.00 46 1014.0
20260507183124 18 250 0.0 12.9 0.00 0.00 0.00 45 1014.1
20260507182847 19 257 3.2 14.5 0.00 0.00 0.00 45 1014.0
20260507182408 19 244 4.8 14.5 0.00 0.00 0.00 44 1014.0
20260507181853 19 246 3.2 16.1 0.00 0.00 0.00 46 1014.1
20260507181616 19 240 3.2 16.1 0.00 0.00 0.00 45 1014.2
20260507181342 19 247 4.8 16.1 0.00 0.00 0.00 45 1014.1
20260507180847 19 236 3.2 14.5 0.00 0.00 0.00 44 1014.1
20260507180408 19 253 4.8 14.5 0.00 0.00 0.00 49 1014.2
20260507180014 18 232 4.8 14.5 0.00 0.00 0.00 48 1014.3
20260507175914 19 248 4.8 14.5 0.00 0.00 0.00 47 1014.2
20260507175420 18 245 4.8 16.1 0.00 0.00 0.00 48 1014.4
20260507174844 18 222 6.4 16.1 0.00 0.00 0.00 46 1014.6
20260507174610 18 238 4.8 14.5 0.00 0.00 0.00 47 1014.7
20260507174411 18 225 3.2 14.5 0.00 0.00 0.00 47 1014.6
20260507173854 18 282 4.8 12.9 0.00 0.00 0.00 47 1014.7
20260507173359 18 217 3.2 16.1 0.00 0.00 0.00 48 1014.6
20260507173135 18 258 1.6 16.1 0.00 0.00 0.00 47 1014.7
20260507172844 18 250 6.4 17.7 0.00 0.00 0.00 49 1014.8
20260507172411 18 244 6.4 17.7 0.00 0.00 0.00 46 1014.9
20260507171857 18 232 3.2 8.0 0.00 0.00 0.00 46 1014.9
20260507171621 18 285 0.0 11.3 0.00 0.00 0.00 46 1015.0
20260507171344 18 244 1.6 16.1 0.00 0.00 0.00 47 1014.9
20260507170848 18 265 6.4 17.7 0.00 0.00 0.00 47 1015.0
20260507170353 17 251 6.4 17.7 0.00 0.00 0.00 46 1015.1
20260507170000 17 252 3.2 12.9 0.00 0.00 0.00 47 1015.3
20260507165900 17 257 1.6 14.5 0.00 0.00 0.00 49 1015.2
20260507165346 17 292 1.6 14.5 0.00 0.00 0.00 47 1015.3
20260507164851 17 246 3.2 17.7 0.00 0.00 0.00 47 1015.3
20260507164616 17 235 6.4 17.7 0.00 0.00 0.00 46 1015.4
20260507164357 17 250 8.0 17.7 0.00 0.00 0.00 46 1015.4
20260507163842 17 229 6.4 16.1 0.00 0.00 0.00 47 1015.4
20260507163348 17 263 3.2 12.9 0.00 0.00 0.00 46 1015.4
20260507163113 17 245 4.8 12.9 0.00 0.00 0.00 47 1015.5
20260507162855 17 244 4.8 17.7 0.00 0.00 0.00 48 1015.4
20260507162341 17 249 3.2 17.7 0.00 0.00 0.00 46 1015.5
20260507161847 17 240 6.4 17.7 0.00 0.00 0.00 46 1015.5
20260507161617 17 247 3.2 14.5 0.00 0.00 0.00 47 1015.6
20260507161353 17 248 8.0 14.5 0.00 0.00 0.00 46 1015.5
20260507160919 17 256 3.2 17.7 0.00 0.00 0.00 49 1015.4
20260507160345 17 246 4.8 17.7 0.00 0.00 0.00 47 1015.4
20260507160141 16 248 4.8 17.7 0.00 0.00 0.00 47 1015.6
20260507155853 17 238 4.8 12.9 0.00 0.00 0.00 48 1015.5
20260507155359 17 247 3.2 14.5 0.00 0.00 0.00 50 1015.5
20260507154845 16 227 6.4 14.5 0.00 0.00 0.00 48 1015.5
20260507154612 16 249 4.8 12.9 0.00 0.00 0.00 49 1015.7
20260507154350 16 241 4.8 12.9 0.00 0.00 0.00 48 1015.7
20260507153857 16 252 1.6 16.1 0.00 0.00 0.00 51 1015.7
20260507153343 16 250 4.8 12.9 0.00 0.00 0.00 51 1015.7
20260507153106 15 234 3.2 12.9 0.00 0.00 0.00 49 1015.8
20260507152849 16 249 6.4 16.1 0.00 0.00 0.00 48 1015.7
20260507152355 15 244 6.4 16.1 0.00 0.00 0.00 49 1015.8
20260507151921 15 250 4.8 11.3 0.00 0.00 0.00 50 1015.8
20260507151506 15 254 3.2 11.3 0.00 0.00 0.00 51 1016.0
20260507151404 15 240 1.6 8.0 0.00 0.00 0.00 52 1015.9
20260507150849 14 209 1.6 12.9 0.00 0.00 0.00 53 1016.0
20260507150355 14 239 6.4 12.9 0.00 0.00 0.00 51 1016.0
20260507150149 13 230 1.6 16.1 0.00 0.00 0.00 53 1016.1
20260507145842 14 252 4.8 16.1 0.00 0.00 0.00 51 1016.0
20260507145348 13 244 3.2 16.1 0.00 0.00 0.00 52 1016.2
20260507144852 13 254 3.2 12.9 0.00 0.00 0.00 53 1016.2
20260507144616 13 232 3.2 16.1 0.00 0.00 0.00 52 1016.3
20260507144358 13 256 4.8 16.1 0.00 0.00 0.00 51 1016.2
20260507143844 13 239 6.4 14.5 0.00 0.00 0.00 53 1016.2
20260507143350 13 253 3.2 11.3 0.00 0.00 0.00 54 1016.2
20260507143118 12 290 1.6 11.3 0.00 0.00 0.00 54 1016.3
20260507142857 13 234 4.8 17.7 0.00 0.00 0.00 54 1016.3
20260507142402 12 196 4.8 17.7 0.00 0.00 0.00 55 1016.4
20260507141848 12 234 3.2 11.3 0.00 0.00 0.00 55 1016.4
20260507141625 12 168 0.0 11.3 0.00 0.00 0.00 57 1016.7
20260507141415 12 242 4.8 11.3 0.00 0.00 0.00 57 1016.5
20260507140859 12 228 3.2 11.3 0.00 0.00 0.00 57 1016.6
20260507140407 12 248 1.6 8.0 0.00 0.00 0.00 58 1016.6
20260507140013 11 240 1.6 12.9 0.00 0.00 0.00 60 1016.7
20260507135912 11 205 1.6 12.9 0.00 0.00 0.00 59 1016.6
20260507135356 11 249 3.2 12.9 0.00 0.00 0.00 59 1016.7
20260507134841 11 239 1.6 12.9 0.00 0.00 0.00 60 1016.7
20260507134611 11 244 1.6 12.9 0.00 0.00 0.00 62 1016.8
20260507134347 11 232 3.2 11.3 0.00 0.00 0.00 62 1016.7
20260507133853 11 229 3.2 11.3 0.00 0.00 0.00 62 1016.8
20260507133359 10 238 1.6 6.4 0.00 0.00 0.00 65 1016.8
20260507133121 10 237 0.0 8.0 0.00 0.00 0.00 64 1016.9
20260507132844 10 240 1.6 8.0 0.00 0.00 0.00 64 1016.9
20260507132349 10 231 4.8 8.0 0.00 0.00 0.00 64 1016.8
20260507131853 10 207 0.0 12.9 0.00 0.00 0.00 65 1016.9
20260507131616 9 205 0.0 14.5 0.00 0.00 0.00 64 1017.0
20260507131358 10 225 3.2 14.5 0.00 0.00 0.00 65 1016.9
20260507130844 9 146 1.6 12.9 0.00 0.00 0.00 66 1017.0
20260507130349 9 239 3.2 12.9 0.00 0.00 0.00 68 1016.9
20260507130144 8 105 0.0 3.2 0.00 0.00 0.00 70 1017.1
20260507125856 8 103 0.0 4.8 0.00 0.00 0.00 71 1017.0
20260507125342 8 160 0.0 4.8 0.00 0.00 0.00 71 1017.0
20260507124847 8 153 0.0 3.2 0.00 0.00 0.00 73 1017.0
20260507124610 7 153 0.0 3.2 0.00 0.00 0.00 73 1017.1
20260507124352 7 157 0.0 3.2 0.00 0.00 0.00 74 1017.1
20260507123842 7 190 0.0 3.2 0.00 0.00 0.00 75 1017.1
20260507123404 7 223 0.0 1.6 0.00 0.00 0.00 77 1017.0
20260507123108 6 360 0.0 1.6 0.00 0.00 0.00 78 1017.2
20260507122848 6 355 0.0 1.6 0.00 0.00 0.00 78 1017.1
20260507122354 6 355 0.0 1.6 0.00 0.00 0.00 81 1017.1
20260507121843 6 355 0.0 1.6 0.00 0.00 0.00 82 1017.1
20260507121604 6 355 0.0 1.6 0.00 0.00 0.00 83 1017.2
20260507121351 6 355 0.0 0.0 0.00 0.00 0.00 83 1017.0
20260507120856 6 355 0.0 0.0 0.00 0.00 0.00 83 1017.1
20260507120341 5 355 0.0 0.0 0.00 0.00 0.00 83 1017.1
20260507120152 5 355 0.0 0.0 0.00 0.00 0.00 83 1017.2
20260507115848 5 355 0.0 0.0 0.00 0.00 0.00 83 1017.2
20260507115354 5 355 0.0 0.0 0.00 0.00 0.00 83 1017.2
20260507114859 5 355 0.0 0.0 0.00 0.00 0.00 82 1017.1
20260507114620 5 355 0.0 0.0 0.00 0.00 0.00 82 1017.2
20260507114346 5 355 0.0 0.0 0.00 0.00 0.00 81 1017.0
20260507113914 5 355 0.0 0.0 0.00 0.00 0.00 81 1017.1
20260507113358 5 355 0.0 0.0 0.00 0.00 0.00 81 1017.0
20260507113118 4 355 0.0 0.0 0.00 0.00 0.00 81 1017.2
20260507112842 5 355 0.0 0.0 0.00 0.00 0.00 81 1017.0
20260507112348 5 355 0.0 0.0 0.00 0.00 0.00 81 1016.9
20260507111855 5 355 0.0 0.0 0.00 0.00 0.00 81 1016.8
20260507111614 5 355 0.0 0.0 0.00 0.00 0.00 81 1017.0
20260507111340 5 355 0.0 0.0 0.00 0.00 0.00 81 1016.8
20260507110846 5 355 0.0 0.0 0.00 0.00 0.00 81 1016.8
20260507110351 5 355 0.0 0.0 0.00 0.00 0.00 80 1016.8
20260507110143 5 355 0.0 0.0 0.00 0.00 0.00 80 1016.9
20260507105858 5 355 0.0 0.0 0.00 0.00 0.00 81 1016.8
20260507105343 5 355 0.0 0.0 0.00 0.00 0.00 80 1016.7
20260507104849 5 355 0.0 0.0 0.00 0.00 0.00 80 1016.7
20260507104608 5 355 0.0 0.0 0.00 0.00 0.00 80 1016.9
20260507104355 5 355 0.0 0.0 0.00 0.00 0.00 80 1016.7
20260507103859 5 355 0.0 0.0 0.00 0.00 0.00 80 1016.7
20260507103344 5 355 0.0 0.0 0.00 0.00 0.00 80 1016.7
20260507103102 5 355 0.0 0.0 0.00 0.00 0.00 80 1016.9
20260507102910 5 355 0.0 0.0 0.00 0.00 0.00 80 1016.8
20260507102356 5 355 0.0 0.0 0.00 0.00 0.00 80 1016.8
20260507101843 5 355 0.0 0.0 0.00 0.00 0.00 80 1016.8
20260507101515 5 355 0.0 0.0 0.00 0.00 0.00 80 1016.9
20260507101408 5 355 0.0 0.0 0.00 0.00 0.00 80 1016.8
20260507100854 5 355 0.0 0.0 0.00 0.00 0.00 80 1016.9
20260507100359 5 355 0.0 0.0 0.00 0.00 0.00 80 1016.8
20260507100149 5 355 0.0 0.0 0.00 0.00 0.00 79 1017.0
20260507095846 5 355 0.0 0.0 0.00 0.00 0.00 79 1017.0
20260507095414 5 355 0.0 0.0 0.00 0.00 0.00 79 1017.0
20260507094859 5 355 0.0 0.0 0.00 0.00 0.00 79 1017.0
20260507094506 5 355 0.0 0.0 0.00 0.00 0.00 79 1017.1
20260507094405 6 355 0.0 0.0 0.00 0.00 0.00 79 1016.9
20260507093850 6 355 0.0 0.0 0.00 0.00 0.00 79 1016.9
20260507093356 6 355 0.0 0.0 0.00 0.00 0.00 79 1016.9
20260507093114 5 355 0.0 0.0 0.00 0.00 0.00 79 1017.1
20260507092841 6 355 0.0 0.0 0.00 0.00 0.00 78 1016.9
20260507092347 6 355 0.0 0.0 0.00 0.00 0.00 78 1016.9
20260507091854 6 355 0.0 0.0 0.00 0.00 0.00 78 1017.0
20260507091614 6 355 0.0 0.0 0.00 0.00 0.00 78 1017.1
20260507091359 6 355 0.0 0.0 0.00 0.00 0.00 78 1016.9
20260507090845 6 355 0.0 0.0 0.00 0.00 0.00 78 1017.0
20260507090350 6 355 0.0 0.0 0.00 0.00 0.00 78 1017.1
20260507090143 6 355 0.0 0.0 0.00 0.00 0.00 78 1017.2
20260507085858 6 355 0.0 0.0 0.00 0.00 0.00 78 1017.1
20260507085404 6 355 0.0 0.0 0.00 0.00 0.00 78 1017.1
20260507084849 6 355 0.0 0.0 0.00 0.00 0.00 77 1017.1
20260507084607 6 355 0.0 0.0 0.00 0.00 0.00 78 1017.2
20260507084354 6 355 0.0 0.0 0.00 0.00 0.00 78 1017.1
20260507083859 6 355 0.0 0.0 0.00 0.00 0.00 78 1017.2
20260507083346 6 355 0.0 0.0 0.00 0.00 0.00 78 1017.1
20260507083105 6 355 0.0 0.0 0.00 0.00 0.00 78 1017.2
20260507082851 6 355 0.0 0.0 0.00 0.00 0.00 78 1017.2
20260507082357 6 355 0.0 0.0 0.00 0.00 0.00 78 1017.1
20260507081903 6 355 0.0 0.0 0.00 0.00 0.00 77 1017.2
20260507081623 6 355 0.0 0.0 0.00 0.00 0.00 77 1017.2
20260507081348 6 355 0.0 0.0 0.00 0.00 0.00 77 1017.2
20260507080851 6 355 0.0 0.0 0.00 0.00 0.00 77 1017.2
20260507080355 6 355 0.0 0.0 0.00 0.00 0.00 77 1017.3
20260507080149 6 355 0.0 0.0 0.00 0.00 0.00 77 1017.4
20260507075842 6 355 0.0 0.0 0.00 0.00 0.00 77 1017.3
20260507075347 6 355 0.0 0.0 0.00 0.00 0.00 77 1017.3
20260507074852 6 355 0.0 0.0 0.00 0.00 0.00 77 1017.4
20260507074613 6 355 0.0 0.0 0.00 0.00 0.00 77 1017.5
20260507074358 6 355 0.0 0.0 0.00 0.00 0.00 77 1017.3
20260507073843 6 355 0.0 0.0 0.00 0.00 0.00 77 1017.5
20260507073349 6 355 0.0 0.0 0.00 0.00 0.00 77 1017.5
20260507073113 6 355 0.0 0.0 0.00 0.00 0.00 77 1017.6
20260507072855 6 355 0.0 0.0 0.00 0.00 0.00 77 1017.5
20260507072340 6 355 0.0 0.0 0.00 0.00 0.00 77 1017.6
20260507071846 6 355 0.0 0.0 0.00 0.00 0.00 77 1017.5
20260507071611 6 355 0.0 0.0 0.00 0.00 0.00 77 1017.5
20260507071351 6 355 0.0 0.0 0.00 0.00 0.00 77 1017.5
20260507070857 6 355 0.0 0.0 0.00 0.00 0.00 76 1017.6
20260507070341 6 355 0.0 0.0 0.00 0.00 0.00 76 1017.6
20260507070139 6 355 0.0 0.0 0.00 0.00 0.00 76 1017.7
20260507065850 6 355 0.0 0.0 0.00 0.00 0.00 76 1017.6
20260507065356 6 355 0.0 0.0 0.00 0.00 0.00 76 1017.7
20260507064842 6 355 0.0 0.0 0.00 0.00 0.00 76 1017.7
20260507064621 6 355 0.0 0.0 0.00 0.00 0.00 76 1017.8
20260507064348 6 355 0.0 0.0 0.00 0.00 0.00 75 1017.6
20260507063913 6 355 0.0 0.0 0.00 0.00 0.00 75 1017.7
20260507063357 6 355 0.0 0.0 0.00 0.00 0.00 75 1017.7
20260507063004 5 355 0.0 0.0 0.00 0.00 0.00 75 1017.8
20260507062903 6 355 0.0 0.0 0.00 0.00 0.00 75 1017.6
20260507062348 6 355 0.0 0.0 0.00 0.00 0.00 75 1017.6
20260507061914 6 355 0.0 0.0 0.00 0.00 0.00 74 1017.7
20260507061618 5 355 0.0 0.0 0.00 0.00 0.00 74 1017.8
20260507061359 6 355 0.0 0.0 0.00 0.00 0.00 74 1017.8
20260507060845 6 355 0.0 0.0 0.00 0.00 0.00 75 1018.0
20260507060350 6 355 0.0 0.0 0.00 0.00 0.00 74 1018.1
20260507060145 6 355 0.0 0.0 0.00 0.00 0.00 74 1018.1
20260507055857 6 355 0.0 0.0 0.00 0.00 0.00 74 1017.9
20260507055343 6 355 0.0 0.0 0.00 0.00 0.00 73 1018.0
20260507054848 6 355 0.0 0.0 0.00 0.00 0.00 73 1017.9
20260507054612 6 355 0.0 0.0 0.00 0.00 0.00 72 1018.0
20260507054354 6 355 0.0 0.0 0.00 0.00 0.00 72 1018.0
20260507053841 6 355 0.0 0.0 0.00 0.00 0.00 72 1018.0
20260507053348 6 355 0.0 0.0 0.00 0.00 0.00 71 1017.9
20260507053111 6 355 0.0 0.0 0.00 0.00 0.00 71 1018.1
20260507052853 6 355 0.0 0.0 0.00 0.00 0.00 71 1017.9
20260507052358 6 355 0.0 0.0 0.00 0.00 0.00 71 1017.9
20260507051843 6 355 0.0 0.0 0.00 0.00 0.00 70 1017.9
20260507051607 6 355 0.0 0.0 0.00 0.00 0.00 71 1017.9
20260507051410 6 355 0.0 0.0 0.00 0.00 0.00 70 1017.9
20260507050856 7 355 0.0 0.0 0.00 0.00 0.00 70 1018.0
20260507050402 7 355 0.0 0.0 0.00 0.00 0.00 69 1018.0
20260507050136 6 355 0.0 0.0 0.00 0.00 0.00 69 1018.0
20260507045848 7 355 0.0 0.0 0.00 0.00 0.00 69 1017.7
20260507045354 7 355 0.0 0.0 0.00 0.00 0.00 69 1017.8
20260507044859 7 355 0.0 0.0 0.00 0.00 0.00 69 1017.7
20260507044622 7 355 0.0 0.0 0.00 0.00 0.00 69 1017.8
20260507044344 7 355 0.0 0.0 0.00 0.00 0.00 69 1017.7
20260507043911 7 355 0.0 0.0 0.00 0.00 0.00 69 1017.7
20260507043416 7 355 0.0 0.0 0.00 0.00 0.00 69 1017.8
20260507043119 7 355 0.0 0.0 0.00 0.00 0.00 68 1017.9
20260507042841 7 355 0.0 0.0 0.00 0.00 0.00 68 1017.9
20260507042347 7 355 0.0 0.0 0.00 0.00 0.00 68 1017.8
20260507041854 7 355 0.0 0.0 0.00 0.00 0.00 68 1017.8
20260507041617 7 355 0.0 0.0 0.00 0.00 0.00 67 1017.9
20260507041359 7 355 0.0 0.0 0.00 0.00 0.00 67 1017.8
20260507040845 8 355 0.0 0.0 0.00 0.00 0.00 66 1017.9
20260507040352 8 355 0.0 0.0 0.00 0.00 0.00 65 1017.9
20260507040001 7 355 0.0 0.0 0.00 0.00 0.00 65 1018.0
20260507035900 8 355 0.0 0.0 0.00 0.00 0.00 65 1018.0
20260507035344 8 355 0.0 0.0 0.00 0.00 0.00 65 1017.8
20260507034850 8 355 0.0 0.0 0.00 0.00 0.00 64 1017.9
20260507034624 8 355 0.0 0.0 0.00 0.00 0.00 64 1018.0
20260507034356 8 355 0.0 0.0 0.00 0.00 0.00 64 1017.9
20260507033843 8 355 0.0 0.0 0.00 0.00 0.00 63 1018.0
20260507033348 8 355 0.0 0.0 0.00 0.00 0.00 62 1018.1
20260507033116 8 355 0.0 0.0 0.00 0.00 0.00 63 1018.1
20260507032853 9 355 0.0 0.0 0.00 0.00 0.00 63 1018.1
20260507032340 9 355 0.0 0.0 0.00 0.00 0.00 62 1018.1
20260507031907 9 355 0.0 0.0 0.00 0.00 0.00 61 1018.0
20260507031610 9 355 0.0 0.0 0.00 0.00 0.00 61 1018.1
20260507031414 9 355 0.0 0.0 0.00 0.00 0.00 60 1018.0
20260507030859 10 355 0.0 0.0 0.00 0.00 0.00 61 1018.0
20260507030345 10 355 0.0 0.0 0.00 0.00 0.00 59 1018.0
20260507030142 9 355 0.0 0.0 0.00 0.00 0.00 59 1018.1
20260507025853 10 355 0.0 0.0 0.00 0.00 0.00 58 1018.0
20260507025420 10 355 0.0 0.0 0.00 0.00 0.00 56 1017.9
20260507024843 10 355 0.0 0.0 0.00 0.00 0.00 57 1017.8
20260507024610 10 355 0.0 0.0 0.00 0.00 0.00 56 1017.9
20260507024351 10 355 0.0 0.0 0.00 0.00 0.00 56 1017.8
20260507023857 10 355 0.0 0.0 0.00 0.00 0.00 56 1017.8
20260507023342 11 355 0.0 0.0 0.00 0.00 0.00 54 1017.9
20260507023114 10 355 0.0 0.0 0.00 0.00 0.00 53 1017.9
20260507022848 11 355 0.0 0.0 0.00 0.00 0.00 53 1017.9
20260507022414 11 355 0.0 0.0 0.00 0.00 0.00 52 1017.7
20260507021858 11 355 0.0 0.0 0.00 0.00 0.00 51 1017.7
20260507021601 11 355 0.0 0.0 0.00 0.00 0.00 51 1017.8
20260507021405 11 355 0.0 0.0 0.00 0.00 0.00 51 1017.6
20260507020911 11 355 0.0 0.0 0.00 0.00 0.00 49 1017.6
20260507020356 11 355 0.0 0.0 0.00 0.00 0.00 48 1017.7
20260507020005 11 355 0.0 0.0 0.00 0.00 0.00 48 1017.7
20260507015904 12 355 0.0 0.0 0.00 0.00 0.00 47 1017.7
20260507015349 12 355 0.0 0.0 0.00 0.00 0.00 47 1017.5
20260507014855 12 355 0.0 0.0 0.00 0.00 0.00 46 1017.5
20260507014619 12 355 0.0 0.0 0.00 0.00 0.00 45 1017.6
20260507014342 12 355 0.0 0.0 0.00 0.00 0.00 45 1017.4
20260507013847 12 355 0.0 0.0 0.00 0.00 0.00 45 1017.4